Moron de la Frontera, Spain

5:12 AM CET on February 20, 2017 (GMT +0100)
Moron Air Base

Weather History for LEMO - September, 2013

Change the Weather History Date:

Wednesday, September 18, 2013

  Actual Average Record
Temperature  
Mean Temperature 73 °F -  
Max Temperature 82 °F 80 °F 93 °F (2016)
Min Temperature 64 °F 58 °F 51 °F (2015)
Cooling Degree Days 8    
Growing Degree Days 23 (Base 50)    
Moisture  
Dew Point 60 °F    
Average Humidity 66    
Maximum Humidity 83    
Minimum Humidity 48    
Precipitation  
Precipitation 0.00 in - - ()
Sea Level Pressure  
Sea Level Pressure 30.01 in    
Wind  
Wind Speed 6 mph ()    
Max Wind Speed 14 mph    
Max Gust Speed -    
Visibility 6.2 miles    
Events      
Averages and records for this station are not official NWS values.
T = Trace of Precipitation, MM = Missing Value Source: Averaged Metar Reports

Daily Weather History Graph

Daily Weather History Graph

Search for Another Location

Airport or City:

Trip Planner

Search our weather history database for the weather conditions in past years. The results will help you decide how hot, cold, wet, or windy it might be!

Date:

Astronomy

Sep. 18, 2013 Rise Set
Actual Time 8:07 AM CEST 8:25 PM CEST
Civil Twilight 7:41 AM CEST 8:51 PM CEST
Nautical Twilight 7:10 AM CEST 9:21 PM CEST
Astronomical Twilight 6:39 AM CEST 9:52 PM CEST
Moon 7:40 PM CEST (9/18) 6:54 AM CEST (9/18)
Length of Visible Light 13h 10m
Length of Day
12h 18m
Waxing Gibbous, 99% of the Moon is Illuminated
Sep 18
Waxing Gibbous
Sep 19
Full
Sep 27
Last Quarter
Oct 5
New
Oct 12
First Quarter

Hourly Weather History & Observations

Time (CEST) Temp. Heat Index Dew Point Humidity Pressure Visibility Wind Dir Wind Speed Gust Speed Precip Events Conditions
12:00 AM 68.0 °F - 59.0 °F 73% 30.01 in - WSW 5.8 mph - N/A   Clear
1:00 AM 64.4 °F - 59.0 °F 83% 30.01 in - SW 3.5 mph - N/A   Clear
3:00 AM 66.2 °F - 59.0 °F 78% 30.01 in 6.2 mi South 4.6 mph - N/A   Mostly Cloudy
4:00 AM 66.2 °F - 59.0 °F 78% 30.01 in 6.2 mi South 4.6 mph - N/A   Mostly Cloudy
5:00 AM 66.2 °F - 59.0 °F 78% 29.98 in 6.2 mi South 4.6 mph - N/A   Mostly Cloudy
6:00 AM 66.2 °F - 59.0 °F 78% 29.98 in 6.2 mi South 4.6 mph - N/A   Mostly Cloudy
7:00 AM 66.2 °F - 59.0 °F 78% 30.01 in 6.2 mi SSW 4.6 mph - N/A   Mostly Cloudy
8:00 AM 66.2 °F - 59.0 °F 78% 30.01 in 6.2 mi SW 3.5 mph - N/A   Mostly Cloudy
9:00 AM 68.0 °F - 59.0 °F 73% 30.04 in 6.2 mi SW 3.5 mph - N/A   Mostly Cloudy
10:00 AM 69.8 °F - 59.0 °F 68% 30.04 in 6.2 mi West 5.8 mph - N/A   Mostly Cloudy
11:00 AM 71.6 °F - 60.8 °F 69% 30.04 in 6.2 mi West 6.9 mph - N/A   Mostly Cloudy
12:00 PM 73.4 °F - 60.8 °F 65% 30.04 in 6.2 mi West 6.9 mph - N/A   Mostly Cloudy
1:00 PM 77.0 °F - 60.8 °F 57% 30.04 in 6.2 mi SW 6.9 mph - N/A   Mostly Cloudy
2:00 PM 78.8 °F - 60.8 °F 54% 30.04 in 6.2 mi WSW 6.9 mph - N/A   Scattered Clouds
3:00 PM 80.6 °F 81.5 °F 60.8 °F 51% 30.01 in 6.2 mi WSW 6.9 mph - N/A   Scattered Clouds
4:00 PM 82.4 °F 82.9 °F 60.8 °F 48% 29.98 in 6.2 mi West 8.1 mph - N/A   Partly Cloudy
5:00 PM 82.4 °F 82.9 °F 60.8 °F 48% 29.98 in 6.2 mi West 10.4 mph - N/A   Partly Cloudy
6:00 PM 82.4 °F 82.9 °F 60.8 °F 48% 29.98 in 6.2 mi West 12.7 mph - N/A   Partly Cloudy
7:00 PM 78.8 °F - 60.8 °F 54% 29.98 in 6.2 mi West 12.7 mph - N/A   Partly Cloudy
8:00 PM 75.2 °F - 60.8 °F 61% 30.01 in - West 13.8 mph - N/A   Clear
9:00 PM 71.6 °F - 60.8 °F 69% 30.01 in - West 11.5 mph - N/A   Clear
10:00 PM 69.8 °F - 59.0 °F 68% 30.04 in - WSW 8.1 mph - N/A   Clear
11:00 PM 69.8 °F - 59.0 °F 68% 30.04 in - SW 6.9 mph - N/A   Clear